Regional Weather Roundup
Issued by NWS Northern Indiana

Home | Current Version | Previous Version | Graphics & Text | Print | Product List | Glossary On
Versions: 1 2 3 4 5 6 7 8 9 10 11 12 13 14 15 16 17 18 19 20 21 22 23 24 25 26 27 28 29 30 31 32 33 34 35 36 37 38 39 40 41 42 43 44 45 46 47 48 49 50
000
ASUS43 KIWX 312200
RWRIWX

KIWX WEATHER ROUNDUP
NATIONAL WEATHER SERVICE NORTHERN INDIANA
600 PM EDT THU JUL 31 2014

NOTE: "FAIR" INDICATES FEW OR NO CLOUDS BELOW 12,000 FEET WITH NO
SIGNIFICANT WEATHER AND/OR OBSTRUCTIONS TO VISIBILITY.

* THESE STATIONS ARE NOT UNDER NWS QUALITY CONTROL. THEY ALSO MAY NOT
  REPORT WEATHER SUCH AS PRECIPITATION OR FOG.

INZ001>027-312300-
NORTHERN INDIANA

CITY           SKY/WX    TMP DP  RH WIND       PRES   REMARKS
GARY*          PTSUNNY   82  59  44 W12       30.02F
VALPARAISO     MOSUNNY   80  60  50 SW12      30.04S
SOUTH BEND     MOSUNNY   80  58  46 S8        30.04S
ELKHART*       MOSUNNY   81  50  34 NW8       30.04S
GOSHEN         MOSUNNY   80  58  46 W9        30.04S
MONTICELLO*    SUNNY     78  62  56 W6        30.05S
ANGOLA*        PTSUNNY   79  72  78 W6        30.05R
FORT WAYNE     MOSUNNY   78  58  49 SW8       30.06S
PERU/GRISSOM   SUNNY     80  62  54 W10       30.06F

$$
INZ028>050-312300-
CENTRAL INDIANA

CITY           SKY/WX    TMP DP  RH WIND       PRES   REMARKS
LAFAYETTE      SUNNY     79  59  50 W6        30.06S
KOKOMO*        SUNNY     81  57  44 W9        30.07S
MUNCIE*        SUNNY     79  56  45 NW9       30.08S
INDIANAPOLIS   MOSUNNY   79  58  48 W9        30.07S

$$
MIZ043>046-050>051-056>058-064>065-071>073-077>080-312300-
SOUTHWEST LOWER MICHIGAN

CITY           SKY/WX    TMP DP  RH WIND       PRES   REMARKS
BATTLE CREEK   SUNNY     78  58  49 W10       30.04S
BENTON HARBOR  SUNNY     79  56  45 W9        30.02F
COLDWATER*     MOSUNNY   80  57  46 W9        30.04R
HILLSDALE*     MOSUNNY   79  58  49 W8G17     30.05R
HOLLAND        SUNNY     78  60  53 SW12      30.03S
GRAND RAPIDS   MOSUNNY   79  59  50 W13       30.02S
KALAMAZOO      MOSUNNY   79  57  46 NW13G20   30.03S
STURGIS*       SUNNY     79  57  47 W7        30.04S
THREE RIVERS*  FAIR      81  60  48 NW8       30.04S

$$
OHZ001>008-015>018-024>025-312300-
NORTHWEST OHIO

CITY           SKY/WX    TMP DP  RH WIND       PRES   REMARKS
DEFIANCE       PTSUNNY   80  58  46 VRB6      30.04S
FINDLAY        MOSUNNY   81  57  43 SW13G18   30.04F
TOLEDO EXPRESS MOSUNNY   82  56  40 SW8       30.02F
TOLEDO METCALF MOSUNNY   82  56  40 SW14G21   30.03F
LIMA           MOSUNNY   80  58  46 W12       30.07S

$$
&&


USA.gov is the U.S. government's official web portal to all federal, state and local government web resources and services.